Retour au catalogue

STARLINK-31316

ActifCommunicationsVLEO
NORAD 59090·PAYLOAD·🇺🇸 United States

Lancé Feb 29, 2024 depuis Cape Canaveral Space Force Station

Loading…

Prochains Passages (prochaines 24 heures)

TLE

FraisSource: CelesTrak SupGP

Époque: Sep 15, 2026, 03:11 UTC

1 59090C 24041S   26258.13312500 -.00011873  00000+0 -43004-3 0  2585
2 59090  43.0007 274.0131 0001890 269.9586 173.2834 15.27584088    17

Suivez STARLINK-31316 en temps réel avec AllMySat

Download on the App Store